Theta_e
330 330 330 331 332 332 332 333 333 334 334 334 335 335 335 334 333 331 330 329 328 327 327 326 325 325 325 324 322 319 320 321 322 324 323 321 320 319 321 324 326 326 325 322 319 317 319 320 321 320 321 325 327 326 324 323 321 318 316 314 312 310
331 331 332 332 333 333 333 333 331 332 333 334 334 335 335 334 333 331 330 329 329 327 326 325 325 326 325 325 323 318 319 322 323 324 322 320 319 319 319 321 324 327 327 325 321 317 315 318 323 322 321 323 327 328 326 325 323 319 317 317 315 311
329 329 330 330 331 333 334 333 331 331 333 334 334 334 334 333 332 331 330 329 329 327 325 324 325 326 326 325 322 319 322 324 323 323 323 321 320 319 319 319 322 326 327 327 325 320 315 318 324 325 323 323 325 328 328 326 324 321 319 319 318 314
327 327 327 327 328 330 332 333 333 332 332 334 334 334 334 333 332 331 330 329 329 327 324 324 326 327 326 324 321 321 324 325 324 324 323 321 321 319 318 319 321 324 326 327 327 324 318 319 325 327 326 326 324 327 329 328 325 321 321 320 319 317
327 327 327 327 328 328 330 331 333 333 333 333 333 334 334 333 332 331 330 329 327 325 324 326 327 327 326 325 324 324 325 325 325 324 324 322 322 320 319 320 321 322 324 325 327 327 322 319 324 327 328 328 326 326 329 329 326 322 321 321 319 319
327 326 327 327 328 328 329 330 332 333 333 334 333 333 333 332 332 331 330 328 325 324 326 328 328 327 327 326 326 326 325 326 325 325 325 323 322 321 320 320 319 320 321 322 324 327 326 321 323 326 328 329 327 327 329 329 327 323 322 322 320 320
325 325 325 326 327 328 329 329 329 330 332 333 334 333 332 331 331 331 330 328 326 326 327 328 328 327 327 327 326 325 326 326 326 325 324 322 322 321 321 319 317 319 320 320 321 324 327 325 322 325 327 328 328 328 328 328 327 324 324 323 322 320
321 322 322 323 325 326 328 329 329 329 330 331 332 332 332 331 331 331 331 329 328 328 329 328 328 327 327 327 326 325 325 326 327 325 323 322 322 321 319 317 314 315 318 321 321 322 326 327 325 324 326 328 328 328 328 328 326 325 324 324 322 321
316 318 318 318 318 319 321 325 329 329 329 331 332 331 330 329 330 331 331 331 330 329 330 329 328 327 327 328 328 327 326 325 327 325 322 322 322 321 318 315 312 311 316 321 323 323 324 326 326 324 325 326 327 327 328 327 326 325 324 323 322 321
315 315 314 314 314 314 314 319 325 329 330 331 332 332 329 326 327 328 329 330 331 331 330 330 329 328 328 329 329 329 328 327 327 325 322 322 322 321 319 314 311 310 313 319 322 324 325 326 326 324 324 324 325 327 328 327 326 324 324 323 321 321
314 314 313 313 313 313 313 315 321 327 329 330 331 331 331 329 325 323 325 329 331 330 330 330 329 329 329 330 330 330 330 329 328 325 321 322 323 322 320 314 311 311 313 317 319 322 325 325 324 324 323 322 323 326 327 327 326 325 324 322 321 321
315 314 314 314 314 313 314 316 319 323 326 328 330 331 331 331 328 323 322 326 330 331 330 330 330 330 330 331 330 329 330 330 328 326 322 322 323 322 322 317 312 313 315 317 319 321 324 324 323 323 323 321 320 323 326 326 326 325 323 323 322 322
314 314 314 315 315 315 315 317 319 320 322 324 327 329 330 330 331 328 324 323 326 329 329 329 329 330 331 332 330 328 330 329 328 327 324 322 322 321 323 319 313 315 318 319 322 324 325 325 324 323 323 322 320 321 323 325 325 325 324 324 323 323
312 312 312 313 314 316 316 318 319 320 321 322 324 326 327 329 330 330 329 326 324 325 326 328 329 329 331 332 330 328 329 329 329 329 327 324 323 321 322 321 317 318 321 323 326 326 326 325 324 323 322 322 320 319 321 323 324 324 325 324 323 324
310 310 310 311 312 315 316 318 319 319 319 319 320 321 323 326 328 329 331 330 328 327 328 329 330 330 330 331 330 329 329 329 330 329 329 327 324 322 322 322 321 320 322 325 326 326 325 325 324 323 323 322 321 319 319 321 323 323 323 322 322 323
310 309 309 309 311 313 315 316 317 316 315 314 316 318 320 321 323 324 326 327 329 330 331 330 331 331 330 330 331 330 328 329 330 329 330 328 326 325 322 323 323 322 323 324 325 325 325 325 325 325 324 323 320 319 319 319 320 321 321 320 320 320
310 309 309 309 309 312 314 315 314 312 312 313 315 317 318 319 319 321 321 322 325 326 328 329 329 330 330 330 330 330 329 328 329 330 330 330 329 327 325 323 324 324 323 323 324 325 325 324 325 325 324 324 322 320 319 319 320 320 321 321 321 321
310 309 309 308 309 310 311 311 310 310 311 312 314 315 317 319 319 320 320 321 322 322 323 324 325 327 327 328 329 330 330 329 330 330 331 331 330 328 326 325 325 324 324 324 324 325 325 325 326 325 323 324 324 323 322 321 322 322 323 324 324 324
310 309 308 308 308 309 308 307 306 307 308 310 312 314 314 316 316 317 318 319 320 321 321 321 322 323 323 325 328 329 329 329 329 329 330 330 329 329 328 327 327 327 325 325 325 326 327 327 327 327 325 325 326 325 325 324 324 324 325 325 325 325
310 309 309 309 308 307 306 305 305 305 306 307 308 308 309 309 309 310 311 311 313 315 316 317 318 320 320 322 326 328 328 328 328 328 329 329 329 329 329 329 329 328 327 326 327 327 327 326 327 327 326 327 328 327 326 325 325 326 326 326 326 326
310 309 309 309 308 307 306 306 306 306 306 306 305 305 305 305 305 305 305 306 306 307 307 309 311 314 317 319 322 324 326 327 327 328 328 329 329 329 329 329 329 329 327 327 328 328 327 325 326 326 325 324 327 328 327 326 326 327 327 326 327 326
310 309 309 309 307 306 307 307 306 306 306 306 306 306 306 306 306 305 305 304 304 303 304 304 304 306 310 315 317 319 321 324 325 326 327 328 329 329 328 328 329 329 329 327 328 328 325 323 324 326 326 325 325 325 326 326 326 327 328 328 327 328
310 309 308 307 307 308 308 307 307 306 307 307 307 307 307 306 306 305 305 305 304 303 303 303 303 303 305 309 313 314 316 319 321 323 325 325 326 326 327 328 329 330 330 328 328 327 323 322 325 327 328 328 327 325 325 325 325 326 327 328 328 328
310 309 308 307 308 309 308 307 307 307 307 307 307 307 307 307 307 306 306 305 305 304 304 303 303 303 304 306 308 311 314 316 317 319 322 322 322 323 323 324 326 328 329 328 328 326 323 323 326 327 327 328 329 328 327 327 326 326 327 328 329 329
310 309 308 308 309 309 308 308 308 307 308 308 308 308 308 308 307 307 307 306 305 305 304 304 303 303 304 304 305 308 312 314 316 318 319 320 320 320 320 321 322 324 326 327 327 327 325 325 326 326 326 327 329 329 329 329 328 327 326 327 328 328
310 309 309 309 310 310 309 308 308 308 308 308 308 308 308 308 308 308 307 307 306 305 305 304 304 304 304 305 305 305 308 310 312 314 317 317 317 317 318 319 320 321 322 324 325 326 326 325 325 325 324 325 327 328 328 328 328 328 328 328 328 328
309 309 309 309 310 310 310 308 308 308 308 308 308 308 308 308 308 308 308 307 306 305 305 304 304 304 304 305 305 305 306 307 308 309 311 311 311 311 312 313 315 317 318 321 322 323 324 324 325 325 324 324 325 327 328 328 328 328 328 329 329 328
310 309 309 310 310 310 310 309 308 308 308 308 308 309 309 308 308 308 308 308 307 306 305 304 303 303 303 303 304 304 305 306 306 306 307 307 306 306 307 307 308 309 311 314 316 318 320 322 323 324 324 325 326 327 327 327 327 328 328 328 328 328
311 309 309 310 310 310 310 309 308 308 308 308 309 309 309 309 309 308 308 308 307 306 306 305 304 303 303 303 303 304 304 304 305 304 304 305 305 304 305 305 305 306 306 308 309 311 313 316 317 319 320 321 322 324 325 325 325 326 327 327 327 328
313 310 310 311 311 310 310 309 308 308 309 309 309 309 309 310 309 308 308 308 308 307 307 306 305 304 304 304 304 304 304 304 304 304 304 304 304 304 304 304 304 304 304 305 306 307 308 310 311 313 315 316 317 318 320 322 323 324 325 325 325 326
314 311 310 311 311 311 311 310 309 308 309 309 309 309 309 310 310 309 308 308 308 308 307 306 306 305 305 305 305 305 305 305 305 305 305 304 304 304 304 304 304 303 303 303 303 304 305 306 306 308 309 310 312 313 314 316 317 319 321 322 323 324
316 312 310 311 311 311 311 311 310 309 309 309 309 309 309 310 310 310 309 308 308 308 308 307 307 306 306 306 306 306 306 306 305 305 305 304 304 305 305 305 305 305 304 304 303 303 303 303 303 304 305 306 307 309 310 311 312 314 317 319 320 321
317 315 312 311 311 311 311 311 311 310 308 309 309 310 309 310 310 310 310 309 309 308 308 307 307 307 306 306 306 306 306 305 305 305 305 305 305 305 305 305 305 305 305 305 304 304 303 302 302 302 303 303 304 305 306 308 308 309 312 314 317 319
317 316 314 312 312 312 312 312 311 311 309 308 309 310 310 310 310 310 310 310 310 309 308 308 307 307 307 306 306 306 306 305 305 305 305 305 305 305 305 305 305 305 305 304 304 304 304 303 303 302 302 302 302 302 303 304 305 306 307 310 313 315
317 317 315 313 312 312 312 312 312 311 310 309 309 309 310 310 310 310 310 311 311 310 309 308 308 307 307 306 306 306 306 305 305 305 305 305 305 305 305 305 305 304 304 304 304 304 303 303 303 303 302 302 302 302 301 302 302 303 304 305 307 309
317 316 315 314 312 311 312 312 312 311 311 310 309 309 309 310 311 311 311 311 311 311 310 310 309 308 307 307 306 306 306 305 305 305 305 305 305 305 305 304 304 304 304 304 304 303 303 303 303 303 302 303 302 302 302 302 301 301 302 302 303 305
317 316 316 315 313 311 311 312 312 311 311 310 310 309 309 310 311 311 311 311 311 311 311 311 310 309 308 307 307 306 306 306 305 305 305 305 305 305 305 304 304 304 304 304 304 304 303 303 303 302 302 302 302 302 302 302 302 302 302 301 302 303
Wind_Speed
10 10 10 10 9 8 8 9 9 10 10 11 13 15 17 18 16 14 11 9 8 6 5 7 8 8 9 8 7 7 7 8 7 8 9 8 8 9 11 12 13 14 14 14 14 13 12 11 9 7 7 8 8 8 7 8 8 9 9 8 8 7
9 9 9 9 9 9 9 10 9 9 9 9 12 14 16 16 15 13 12 10 8 6 6 7 8 9 10 9 8 7 8 8 7 8 7 6 7 8 11 12 14 16 15 14 14 14 14 13 11 9 8 8 7 6 6 7 7 8 8 8 7 7
8 8 8 8 8 8 8 9 9 9 10 9 11 13 15 15 15 14 12 10 8 7 7 7 9 9 9 8 7 7 8 7 8 8 7 6 6 7 9 12 14 16 16 15 14 14 15 14 12 10 9 8 7 6 6 6 6 6 7 7 6 6
8 7 7 7 7 8 8 8 9 9 10 10 10 12 14 14 14 13 12 10 8 8 7 7 9 10 10 8 7 8 8 7 8 9 8 6 6 8 9 11 14 15 16 16 15 14 15 16 14 12 10 9 7 6 6 6 5 5 5 5 5 4
8 7 7 6 6 7 8 9 9 10 10 10 10 11 11 12 13 13 12 10 9 9 8 8 9 10 10 9 9 9 9 8 8 9 9 7 6 7 8 11 14 15 16 16 16 15 15 16 16 14 12 10 9 7 6 6 5 5 5 4 4 3
8 7 7 6 6 7 8 9 10 10 10 10 11 11 11 12 12 13 12 10 9 9 9 9 9 10 10 10 10 10 9 9 9 8 8 6 5 6 8 10 14 15 15 16 16 16 15 16 17 16 14 12 10 8 7 7 6 5 5 4 3 2
8 7 6 6 6 7 8 9 10 11 11 11 11 11 11 11 12 13 13 12 10 10 10 10 9 9 9 9 11 11 10 9 9 8 7 6 5 6 7 10 13 16 15 15 16 17 16 16 17 17 16 14 12 9 8 7 6 6 4 3 2 1
6 6 5 5 5 6 7 9 9 10 11 12 12 12 12 12 12 12 12 13 13 12 12 11 10 9 8 9 11 12 12 11 10 9 8 7 6 6 7 8 12 15 15 15 16 16 16 16 16 17 17 16 14 11 9 8 7 6 5 3 2 1
6 6 5 5 5 6 7 8 9 9 10 11 12 12 12 12 13 11 11 13 13 13 13 12 11 10 8 8 9 12 13 12 11 10 9 8 6 5 6 6 10 15 17 15 15 15 16 15 15 16 17 17 15 13 11 10 8 7 6 4 2 1
7 6 6 6 6 6 7 8 9 9 10 10 11 12 11 11 12 13 12 12 12 12 12 14 12 11 10 8 9 11 13 14 13 11 10 9 7 5 4 4 8 15 17 15 14 14 14 14 14 15 16 17 16 15 13 12 10 9 8 6 4 3
6 6 5 5 5 6 7 7 8 9 10 10 10 11 11 11 11 12 14 13 12 11 12 12 12 13 12 9 8 11 13 14 14 12 11 10 8 5 4 3 7 13 15 14 13 12 13 12 13 14 15 17 17 16 15 13 12 11 10 8 6 6
5 4 4 4 4 4 5 6 7 8 9 10 11 11 10 10 10 11 13 13 13 12 12 11 11 13 11 6 6 10 13 15 15 14 12 12 10 7 5 3 7 12 13 13 12 12 11 11 11 13 14 15 17 18 17 16 15 13 12 11 9 8
3 3 3 3 3 4 5 5 5 7 8 9 10 10 10 9 9 11 13 13 13 13 13 12 12 12 10 7 6 8 10 12 15 16 13 12 10 8 7 4 8 12 12 12 12 12 12 11 11 13 14 14 16 18 19 19 18 16 14 13 11 9
1 1 2 2 3 4 5 5 5 5 6 6 7 8 8 8 9 11 12 12 13 14 13 12 12 12 10 8 7 7 8 9 13 16 14 13 12 10 9 7 9 12 12 13 13 12 12 12 12 13 14 15 16 18 20 20 19 18 16 14 12 10
0 1 1 2 3 4 4 4 4 5 6 6 6 6 6 6 7 9 9 10 11 12 11 10 11 11 9 8 7 8 9 8 10 14 15 15 13 12 12 10 11 12 13 14 14 14 13 13 13 13 13 14 16 18 19 20 19 17 15 12 11 11
2 1 1 2 3 3 3 4 5 6 6 6 6 5 5 4 4 5 6 7 8 9 9 9 10 10 9 8 7 9 10 9 10 13 15 16 15 13 13 14 14 14 15 16 16 15 14 13 13 13 13 13 14 16 17 17 16 14 12 11 10 10
3 3 2 2 3 3 3 4 5 5 5 5 5 4 4 3 3 3 4 4 4 7 8 8 9 10 9 8 8 9 10 10 11 13 15 16 16 15 15 17 17 16 17 17 17 16 15 14 13 13 13 13 14 14 14 13 12 10 9 8 7 7
5 4 3 3 3 3 3 3 3 4 4 4 4 4 3 3 3 3 3 3 2 3 4 5 7 8 8 7 7 8 9 10 11 12 14 15 15 16 17 18 18 18 17 18 18 17 16 16 15 14 14 13 13 14 13 12 11 10 9 8 7 6
7 5 4 4 4 3 2 2 2 3 3 3 3 3 4 4 4 5 5 6 5 4 5 5 5 6 6 6 7 7 8 10 11 12 12 13 14 15 16 18 19 18 18 19 19 17 16 16 16 16 16 15 14 15 15 14 13 12 11 10 10 9
8 7 5 5 5 4 3 3 3 3 4 4 3 3 3 3 3 5 6 7 8 8 8 8 8 7 7 6 7 7 7 9 10 11 11 11 12 14 14 15 16 17 18 20 20 18 15 13 15 15 15 14 13 14 16 16 16 14 13 12 11 11
8 7 6 4 4 4 4 3 4 5 5 6 6 5 4 3 2 2 3 5 7 8 9 9 10 9 8 7 7 7 7 8 9 9 9 10 10 13 14 13 13 13 15 18 19 17 13 10 10 11 10 10 10 12 15 17 17 16 14 13 12 12
8 7 6 4 4 6 5 4 5 7 7 7 7 6 4 4 3 2 0 1 3 4 5 6 7 8 8 8 7 7 7 7 7 6 6 7 7 9 11 12 12 11 12 14 15 14 11 8 8 9 9 9 8 9 11 15 18 17 16 14 13 13
9 7 7 6 7 8 7 7 7 8 8 8 7 7 6 6 5 4 4 4 3 3 2 2 3 4 5 6 6 5 5 5 5 4 3 4 4 4 5 8 9 9 10 11 12 12 11 10 9 9 8 8 8 8 9 12 15 16 16 16 15 14
10 8 9 9 10 9 9 9 9 9 9 8 8 8 8 7 7 6 7 7 6 6 4 3 1 2 3 4 5 4 4 3 3 3 3 3 3 2 3 5 5 5 7 9 10 11 12 12 10 8 7 7 8 9 9 10 12 12 12 14 15 15
12 11 11 11 11 10 10 10 10 10 10 9 8 8 8 8 8 7 7 8 8 8 7 6 4 2 2 3 4 5 4 4 3 3 3 3 3 2 3 4 4 4 5 7 9 10 12 12 10 9 9 9 8 7 7 9 9 9 9 11 12 13
13 13 12 12 12 10 10 9 9 10 11 10 9 8 8 7 7 8 8 8 8 8 8 8 7 5 3 2 3 4 4 4 4 4 3 3 3 3 3 3 3 3 3 4 6 7 9 10 10 10 11 11 11 10 10 10 9 8 9 10 10 10
15 15 14 13 12 11 9 8 8 9 9 9 7 6 6 6 6 7 7 8 8 8 9 9 8 7 6 5 4 3 3 3 4 4 3 3 3 3 3 3 3 3 3 4 5 5 6 7 6 7 8 9 11 12 12 11 11 10 9 9 8 9
17 17 15 14 13 11 10 10 11 11 10 9 7 5 5 4 5 5 6 7 7 7 8 9 9 9 9 8 7 6 6 5 5 4 4 4 3 3 3 3 3 3 4 4 5 5 5 6 5 5 5 6 7 8 8 9 9 8 8 9 9 9
19 19 17 15 14 11 11 12 13 13 12 10 9 7 5 4 4 4 5 5 6 6 7 8 9 9 9 9 8 8 8 7 7 7 6 6 5 4 2 0 1 1 2 3 4 4 5 6 6 6 6 6 6 6 6 7 7 7 6 8 9 8
21 20 19 18 15 13 12 13 14 15 13 11 11 9 8 6 5 5 4 4 5 5 5 7 7 8 8 8 7 7 6 6 6 6 6 6 5 4 3 2 2 2 2 3 3 4 5 6 7 7 7 7 7 7 6 6 7 7 6 7 8 9
23 21 21 20 18 15 13 13 14 15 14 12 12 11 10 9 7 6 5 5 5 5 4 5 6 6 6 6 6 5 4 4 4 4 5 5 5 5 4 4 4 3 3 3 4 5 6 6 7 8 8 8 8 8 8 7 8 8 7 7 8 9
24 24 23 21 20 17 15 13 14 15 15 14 13 12 11 10 9 7 6 5 5 5 5 4 4 5 5 5 4 4 3 2 2 3 3 4 4 5 5 6 6 6 5 4 3 4 5 7 9 9 10 10 9 9 9 9 10 11 10 9 9 10
27 26 25 23 22 20 17 14 14 15 16 15 14 13 11 10 10 9 8 6 5 4 5 4 4 4 4 4 4 3 2 1 1 1 1 2 3 4 5 6 6 6 6 6 6 5 4 5 6 8 10 10 11 11 11 11 11 12 13 12 11 11
30 28 26 25 24 22 19 16 14 15 16 16 15 14 13 12 11 11 10 8 5 4 5 5 5 5 4 4 4 3 2 2 2 1 1 1 2 3 4 5 6 6 7 7 8 8 7 7 6 6 7 9 11 12 13 13 13 13 14 15 14 12
32 30 28 27 26 25 22 19 16 16 17 17 17 15 14 13 12 12 12 10 7 6 6 6 6 6 6 5 4 4 3 3 3 3 2 1 0 1 3 5 6 7 8 8 9 9 10 9 9 9 8 8 8 10 12 13 14 15 15 16 16 15
34 32 30 29 29 27 24 22 19 18 18 18 18 17 16 15 14 14 13 12 10 8 7 7 7 7 7 6 6 5 4 4 5 4 4 3 2 2 3 5 7 8 8 9 10 11 11 11 11 11 11 11 10 10 11 12 13 14 15 16 17 17
36 34 32 31 31 29 26 24 21 19 19 19 19 19 18 17 16 15 15 14 12 11 10 9 8 8 8 8 7 7 6 6 6 6 5 5 4 4 5 6 7 8 9 10 11 11 12 13 13 13 13 13 12 12 13 13 13 14 15 16 16 17
Wind_Direction
170 169 167 169 169 172 174 186 198 196 201 203 194 195 196 197 199 202 207 204 208 213 214 215 211 206 201 204 208 207 207 202 197 193 192 204 221 228 222 216 216 213 215 220 224 224 218 214 222 222 193 172 160 156 163 163 155 148 139 138 139 141
177 177 176 178 178 176 176 182 192 193 196 201 192 192 196 199 199 201 204 203 206 204 208 221 214 204 200 203 210 208 201 198 196 193 188 195 218 232 230 224 222 219 216 217 221 226 226 219 218 226 211 185 172 162 168 169 162 155 144 139 138 142
179 180 181 186 188 188 185 182 187 192 197 201 194 192 194 198 200 199 203 205 207 206 205 218 215 206 203 200 209 208 197 198 197 191 185 190 208 221 228 226 225 224 220 217 218 223 227 224 218 224 225 205 192 178 176 179 172 165 151 140 136 138
186 187 189 193 198 201 197 187 186 194 200 204 200 196 195 199 202 203 208 210 211 212 207 214 212 204 201 196 203 206 200 200 198 196 196 200 206 213 221 223 226 225 224 221 216 219 225 226 220 221 229 225 215 201 195 194 186 179 164 143 134 131
193 194 197 201 208 210 209 202 196 198 204 208 206 201 201 204 208 213 216 215 215 212 208 214 211 205 206 199 200 205 205 203 200 202 206 208 205 210 215 219 225 225 226 225 219 217 220 225 224 222 227 232 232 222 209 205 200 192 179 160 143 130
197 196 201 207 213 217 217 215 210 206 207 213 213 205 206 210 213 218 219 218 218 214 208 212 211 207 209 204 204 210 210 209 207 204 206 214 210 211 217 220 226 224 225 228 225 220 217 221 225 223 225 231 238 233 217 214 219 212 191 175 162 144
202 202 210 215 216 219 219 220 220 218 215 215 217 210 207 215 220 221 220 216 215 218 214 213 213 213 217 211 209 212 213 213 210 205 207 219 221 226 225 222 224 220 221 227 227 226 220 218 222 223 223 228 235 234 221 216 225 229 213 190 179 166
198 200 209 213 214 220 222 225 226 226 224 221 222 219 213 216 224 224 221 218 215 220 223 220 217 219 225 221 215 214 214 214 211 208 210 219 233 246 241 228 223 217 215 222 225 226 225 219 220 222 221 224 229 227 224 223 224 226 226 220 207 205
183 188 199 208 218 226 229 230 230 231 227 225 227 227 224 220 226 228 224 221 218 222 228 226 223 223 226 223 222 219 217 215 211 212 214 219 235 256 256 240 227 216 209 216 221 222 225 222 221 222 222 223 224 222 222 225 223 218 224 233 238 267
178 187 198 207 217 224 229 230 229 232 228 229 229 229 233 228 229 231 228 224 221 223 228 229 228 230 227 219 223 224 222 220 215 212 214 218 226 246 260 242 219 212 207 211 220 219 222 223 223 224 224 222 221 220 221 223 224 221 225 236 246 269
181 189 199 206 209 210 220 224 221 225 229 232 231 232 236 232 232 231 227 225 225 226 230 232 232 239 237 221 227 232 224 222 218 212 213 219 223 226 245 227 197 201 202 207 215 216 218 221 222 225 227 226 222 221 223 225 226 226 232 240 253 271
188 195 204 206 200 192 199 212 216 220 229 235 237 240 239 232 230 230 226 225 227 230 235 238 236 246 254 237 237 244 227 219 219 214 210 215 218 213 230 233 185 188 195 200 204 205 208 213 220 226 230 231 228 227 230 231 232 233 237 245 258 271
203 211 213 205 193 179 180 198 213 219 227 233 238 246 250 242 237 234 228 224 227 229 235 242 242 249 261 252 241 246 234 223 220 217 211 212 212 203 207 205 178 182 188 191 194 197 201 208 217 226 231 233 233 233 236 238 239 239 241 250 260 265
231 243 227 205 185 170 175 193 209 222 228 231 234 239 246 246 241 238 229 224 227 230 234 243 250 254 255 252 246 242 241 231 219 219 219 215 210 202 199 191 182 185 189 190 194 200 205 210 217 224 229 232 233 233 237 239 241 244 247 253 256 258
198 257 224 189 174 168 179 197 217 237 248 253 252 247 248 245 242 242 237 235 234 233 236 241 251 260 258 256 257 251 252 244 221 220 223 216 209 206 203 200 196 193 197 200 203 206 210 214 218 222 225 230 233 233 235 238 242 247 249 250 248 250
174 215 195 172 171 177 196 216 238 254 259 262 265 265 265 261 259 260 254 252 238 230 240 244 249 259 262 256 249 247 252 249 231 225 227 220 212 208 207 207 207 204 205 209 211 211 214 218 220 221 220 225 232 233 235 238 240 242 241 239 241 244
188 197 175 161 171 186 210 234 253 261 263 261 260 264 268 274 281 284 279 277 250 237 250 256 254 256 260 258 244 240 245 243 235 230 230 227 218 213 214 215 213 211 211 212 215 218 218 223 228 226 217 219 229 231 230 231 230 229 231 231 235 239
191 191 167 158 172 193 215 240 252 248 249 248 244 244 245 251 258 265 276 283 275 249 247 250 250 251 252 252 243 240 240 237 237 235 231 230 225 219 221 223 219 217 217 216 218 224 226 229 235 232 220 218 228 234 231 228 227 229 236 238 237 241
192 187 168 165 173 181 192 202 215 205 205 213 220 228 231 236 241 246 252 253 253 248 240 240 242 247 246 239 234 235 236 236 238 238 233 233 231 226 226 226 225 223 223 224 224 228 236 242 243 241 235 229 229 237 241 238 239 239 243 247 248 251
197 189 176 174 173 167 167 168 172 169 161 158 161 171 183 193 212 231 242 246 249 249 251 251 249 250 246 237 232 232 234 235 237 240 242 245 238 231 231 227 227 229 226 229 230 232 242 250 248 245 250 250 239 239 246 245 246 246 247 250 250 251
202 191 183 180 167 147 141 161 162 149 139 135 134 131 131 141 158 199 233 248 254 254 254 252 248 244 240 236 234 235 238 238 239 241 244 249 242 235 237 231 227 229 229 230 231 231 239 249 245 240 251 263 251 241 244 245 245 246 246 247 247 248
208 188 179 177 156 140 134 148 149 137 132 128 128 125 118 116 107 102 119 280 278 277 268 257 248 238 232 230 230 234 239 240 240 241 242 246 245 240 239 233 224 220 225 229 225 224 232 243 249 246 252 266 259 244 243 246 247 247 247 249 249 249
211 187 172 170 159 149 147 149 145 137 130 124 123 120 112 105 95 87 79 65 49 26 347 296 256 231 220 218 221 226 229 231 228 225 223 228 238 245 232 224 221 217 219 223 223 224 231 246 259 262 266 273 268 258 254 254 253 251 251 252 252 252
206 186 170 171 166 160 160 156 151 147 137 128 124 119 113 107 99 92 84 75 68 61 53 48 76 190 195 197 202 204 198 193 197 193 193 202 209 219 213 212 219 221 215 213 217 222 230 246 261 263 264 269 267 264 260 259 260 259 257 255 252 253
203 186 173 177 175 168 168 165 161 160 154 144 134 125 117 111 106 99 90 82 75 72 69 69 78 108 153 176 184 188 185 178 176 170 162 161 166 177 195 205 210 216 218 217 218 223 231 244 257 257 256 259 259 259 258 260 265 265 261 259 256 257
203 189 179 182 181 175 174 174 171 168 162 153 144 134 126 119 114 106 98 92 85 81 78 77 78 85 102 127 160 180 187 187 187 179 168 161 162 175 191 200 200 195 197 209 216 225 234 244 257 258 255 255 253 253 257 264 270 271 267 263 257 257
206 194 184 185 186 180 175 172 171 169 163 158 154 146 138 132 122 112 104 99 94 90 87 86 85 82 83 86 95 121 145 162 169 173 173 170 175 193 214 217 215 206 192 188 196 208 220 228 243 248 246 252 257 258 259 261 264 267 270 264 247 244
210 200 189 190 191 183 172 167 165 165 166 170 173 170 158 150 134 120 111 104 100 97 95 94 94 90 87 86 89 93 96 101 108 117 120 124 142 167 207 223 227 229 223 216 212 212 214 216 221 226 227 237 251 258 262 263 263 263 264 264 259 253
213 205 196 194 194 187 175 171 170 167 168 176 184 189 188 185 168 143 126 114 108 103 101 103 103 100 96 91 89 87 85 87 88 90 93 93 98 106 111 197 271 268 259 250 243 237 235 234 235 235 233 233 239 250 261 269 268 266 264 266 270 267
212 208 202 198 197 192 182 179 179 176 173 179 190 199 202 208 204 181 157 138 126 117 112 113 113 111 106 100 94 88 82 79 78 78 78 79 78 77 71 49 13 348 325 302 289 277 266 260 257 255 253 251 253 253 257 263 264 266 268 270 274 274
212 211 208 203 200 197 192 189 188 185 183 188 197 206 210 215 219 207 186 169 152 143 134 129 129 125 120 114 106 99 90 78 67 61 62 66 70 70 66 59 43 27 5 329 302 289 282 277 274 274 273 271 270 266 261 263 265 267 267 268 275 278
213 215 212 207 204 201 198 197 195 193 193 196 204 212 217 222 227 224 211 198 180 166 163 161 156 149 141 136 128 120 109 91 70 56 60 65 68 69 64 57 47 39 30 17 351 310 288 277 272 273 275 274 276 274 269 266 267 268 269 269 273 279
216 217 215 212 209 206 204 204 202 201 200 202 208 215 221 228 233 235 230 220 206 187 182 184 186 186 177 166 158 149 137 132 116 86 78 65 57 56 54 46 35 26 20 17 12 1 340 307 283 272 270 269 269 270 270 269 268 267 269 271 274 277
220 219 219 218 216 212 209 209 209 208 207 207 211 214 219 225 231 236 237 233 222 205 198 201 205 208 209 205 197 184 179 193 202 203 191 119 48 38 35 28 19 12 8 5 4 2 357 347 332 310 289 277 270 268 267 267 268 267 268 269 271 276
221 220 220 221 220 218 215 213 213 213 212 213 214 216 220 225 230 235 237 235 228 217 212 215 216 218 220 221 221 217 214 225 233 234 227 215 259 5 8 360 356 358 360 360 359 356 354 349 344 338 328 313 295 282 274 269 267 265 265 266 267 272
224 221 222 224 223 221 218 217 218 218 217 218 220 223 225 229 234 238 240 239 237 232 226 225 225 223 222 222 225 229 230 237 247 254 258 258 268 299 327 334 340 347 350 352 351 350 349 348 345 341 336 331 323 312 301 291 283 276 271 269 268 269
226 223 223 226 226 223 221 222 224 225 226 224 226 230 232 235 239 242 244 242 241 240 237 233 231 228 225 224 224 227 232 240 249 259 267 275 278 284 301 315 324 333 338 341 343 344 344 344 344 342 339 335 330 324 319 313 306 299 290 283 278 275